Tracking 18032 objects as of 25-March-2017
HD Live streaming from Space Station
objects crossing your sky now

COSMOS 1596

Track COSMOS 1596 now!
COSMOS 1596 is classified as:


NORAD ID: 15267
Int'l Code: 1984-096A
Perigee: 4,743.6 km
Apogee: 35,734.9 km
Inclination: 68.2 °
Period: 720.0 minutes
Semi major axis: 26610 km
RCS: 8.4284 m2 (large)
Launch date: September 7, 1984
Source: Commonwealth of Independent States (former USSR) (CIS)
Launch site: PLESETSK MISSILE AND SPACE COMPLEX (PKMTR)
Your satellite tracking list
Your tracking list is empty





NASA's NSSDC Master Catalog

Two Line Element Set (TLE):
1 15267U 84096A   17082.76396609 -.00000876 +00000-0 -23959+0 0  9992
2 15267 068.1701 007.7835 5823197 091.3708 063.6130 02.00737871238365
Source of the keplerian elements: AFSPC